| time (UTC) | temp C | wind direction | speed KPH | gust KPH | rain 1hr cm | rain 24hr cm | rain mn cm | humidity % | barometer mb |
| 20260510170024 | 30 | 350 | 8.0 | 22.5 | 0.00 | 0.00 | 0.00 | 69 | 1017.4 |
| 20260510164527 | 29 | 299 | 12.9 | 24.1 | 0.00 | 0.00 | 0.00 | 69 | 1017.5 |
| 20260510163025 | 30 | 270 | 8.0 | 22.5 | 0.00 | 0.00 | 0.00 | 68 | 1017.5 |
| 20260510161522 | 30 | 323 | 6.4 | 22.5 | 0.00 | 0.00 | 0.00 | 66 | 1017.5 |
| 20260510160009 | 30 | 22 | 11.3 | 20.9 | 0.00 | 0.00 | 0.00 | 70 | 1017.4 |
| 20260510154514 | 30 | 333 | 6.4 | 19.3 | 0.00 | 0.00 | 0.00 | 69 | 1017.5 |
| 20260510153020 | 30 | 300 | 4.8 | 17.7 | 0.00 | 0.00 | 0.00 | 69 | 1017.6 |
| 20260510151531 | 28 | 326 | 4.8 | 16.1 | 0.00 | 0.00 | 0.00 | 73 | 1017.4 |
| 20260510150008 | 28 | 333 | 8.0 | 16.1 | 0.00 | 0.00 | 0.00 | 72 | 1017.1 |
| 20260510144516 | 29 | 296 | 3.2 | 8.0 | 0.00 | 0.00 | 0.00 | 72 | 1017.2 |
| 20260510143016 | 29 | 284 | 4.8 | 11.3 | 0.00 | 0.00 | 0.00 | 71 | 1017.1 |
| 20260510141524 | 28 | 304 | 4.8 | 14.5 | 0.00 | 0.00 | 0.00 | 73 | 1017.0 |
| 20260510140023 | 28 | 308 | 4.8 | 11.3 | 0.00 | 0.00 | 0.00 | 74 | 1016.7 |
| 20260510134511 | 28 | 264 | 6.4 | 12.9 | 0.00 | 0.00 | 0.00 | 75 | 1016.8 |
| 20260510133015 | 27 | 274 | 4.8 | 11.3 | 0.00 | 0.00 | 0.00 | 75 | 1016.7 |
| 20260510131520 | 27 | 281 | 4.8 | 11.3 | 0.00 | 0.00 | 0.00 | 76 | 1016.6 |
| 20260510130024 | 26 | 278 | 3.2 | 9.7 | 0.00 | 0.00 | 0.00 | 78 | 1016.4 |
| 20260510124529 | 26 | 297 | 3.2 | 6.4 | 0.00 | 0.00 | 0.00 | 80 | 1016.5 |
| 20260510123013 | 24 | 300 | 3.2 | 4.8 | 0.00 | 0.00 | 0.00 | 85 | 1016.4 |
| 20260510121517 | 23 | 275 | 0.0 | 3.2 | 0.00 | 0.00 | 0.00 | 88 | 1016.2 |
| 20260510120026 | 22 | 281 | 3.2 | 6.4 | 0.00 | 0.00 | 0.00 | 89 | 1016.0 |
| 20260510114528 | 22 | 265 | 4.8 | 6.4 | 0.00 | 0.00 | 0.00 | 91 | 1015.8 |
| 20260510113012 | 22 | 274 | 0.0 | 3.2 | 0.00 | 0.00 | 0.00 | 93 | 1015.6 |
| 20260510111520 | 21 | 288 | 0.0 | 0.0 | 0.00 | 0.00 | 0.00 | 93 | 1015.5 |
| 20260510110022 | 21 | 288 | 0.0 | 0.0 | 0.00 | 0.00 | 0.00 | 92 | 1015.3 |
| 20260510104525 | 21 | 288 | 0.0 | 0.0 | 0.00 | 0.00 | 0.00 | 91 | 1015.1 |
| 20260510103028 | 21 | 288 | 0.0 | 0.0 | 0.00 | 0.00 | 0.00 | 91 | 1014.8 |
| 20260510101518 | 21 | 288 | 0.0 | 0.0 | 0.00 | 0.00 | 0.00 | 91 | 1014.7 |
| 20260510100004 | 22 | 288 | 0.0 | 0.0 | 0.00 | 0.00 | 0.00 | 90 | 1014.4 |
| 20260510094514 | 22 | 288 | 0.0 | 0.0 | 0.00 | 0.00 | 0.00 | 91 | 1014.3 |
| 20260510093010 | 22 | 284 | 0.0 | 0.0 | 0.00 | 0.00 | 0.00 | 90 | 1014.2 |
| 20260510091515 | 22 | 272 | 0.0 | 1.6 | 0.00 | 0.00 | 0.00 | 90 | 1013.9 |
| 20260510090020 | 22 | 290 | 0.0 | 1.6 | 0.00 | 0.00 | 0.00 | 89 | 1013.8 |
| 20260510084512 | 22 | 290 | 0.0 | 3.2 | 0.00 | 0.00 | 0.00 | 89 | 1013.7 |
| 20260510083008 | 22 | 272 | 1.6 | 4.8 | 0.00 | 0.00 | 0.00 | 89 | 1013.5 |
| 20260510081510 | 22 | 275 | 0.0 | 3.2 | 0.00 | 0.00 | 0.00 | 88 | 1013.5 |
| 20260510080024 | 22 | 271 | 1.6 | 4.8 | 0.00 | 0.00 | 0.00 | 87 | 1013.3 |
| 20260510074521 | 22 | 267 | 1.6 | 6.4 | 0.00 | 0.00 | 0.00 | 87 | 1013.4 |
| 20260510073012 | 22 | 278 | 1.6 | 4.8 | 0.00 | 0.00 | 0.00 | 86 | 1013.5 |
| 20260510071510 | 22 | 271 | 3.2 | 16.1 | 0.00 | 0.00 | 0.00 | 86 | 1013.3 |
| 20260510070016 | 22 | 271 | 4.8 | 9.7 | 0.00 | 0.00 | 0.00 | 86 | 1013.3 |
| 20260510064520 | 23 | 271 | 4.8 | 16.1 | 0.00 | 0.00 | 0.00 | 84 | 1013.5 |
| 20260510063025 | 23 | 290 | 6.4 | 16.1 | 0.00 | 0.00 | 0.00 | 84 | 1013.8 |
| 20260510061510 | 23 | 250 | 4.8 | 14.5 | 0.00 | 0.00 | 0.00 | 83 | 1013.9 |
| 20260510060030 | 23 | 263 | 6.4 | 12.9 | 0.00 | 0.00 | 0.00 | 82 | 1014.1 |
| 20260510054525 | 23 | 283 | 6.4 | 12.9 | 0.00 | 0.00 | 0.00 | 82 | 1014.4 |
| 20260510053022 | 23 | 266 | 4.8 | 11.3 | 0.00 | 0.00 | 0.00 | 82 | 1014.7 |
| 20260510051508 | 23 | 261 | 3.2 | 11.3 | 0.00 | 0.00 | 0.00 | 82 | 1014.9 |
| 20260510050011 | 23 | 254 | 3.2 | 11.3 | 0.00 | 0.00 | 0.00 | 82 | 1015.1 |
| 20260510044518 | 22 | 231 | 3.2 | 9.7 | 0.00 | 0.00 | 0.00 | 83 | 1015.2 |
| 20260510043026 | 22 | 250 | 3.2 | 4.8 | 0.00 | 0.00 | 0.00 | 83 | 1015.3 |
| 20260510041524 | 22 | 269 | 1.6 | 3.2 | 0.00 | 0.00 | 0.00 | 82 | 1015.5 |
| 20260510040009 | 22 | 269 | 0.0 | 1.6 | 0.00 | 0.00 | 0.00 | 82 | 1015.5 |
| 20260510034521 | 22 | 270 | 0.0 | 1.6 | 0.00 | 0.00 | 0.00 | 81 | 1015.7 |
| 20260510033019 | 22 | 269 | 0.0 | 3.2 | 0.00 | 0.00 | 0.00 | 82 | 1015.6 |
| 20260510031524 | 22 | 269 | 0.0 | 3.2 | 0.00 | 0.00 | 0.00 | 82 | 1015.6 |
| 20260510030027 | 22 | 269 | 0.0 | 3.2 | 0.00 | 0.00 | 0.00 | 84 | 1015.4 |
| 20260510024513 | 22 | 274 | 0.0 | 0.0 | 0.00 | 0.00 | 0.00 | 84 | 1015.4 |
| 20260510023020 | 22 | 275 | 0.0 | 1.6 | 0.00 | 0.00 | 0.00 | 83 | 1015.3 |
| 20260510021521 | 22 | 270 | 1.6 | 3.2 | 0.00 | 0.00 | 0.00 | 83 | 1014.8 |
| 20260510020025 | 22 | 267 | 0.0 | 6.4 | 0.00 | 0.00 | 0.00 | 84 | 1014.7 |
| 20260510014526 | 21 | 274 | 0.0 | 1.6 | 0.00 | 0.00 | 0.00 | 85 | 1014.5 |
| 20260510013016 | 22 | 274 | 0.0 | 1.6 | 0.00 | 0.00 | 0.00 | 83 | 1014.6 |
| 20260510011520 | 22 | 285 | 0.0 | 1.6 | 0.00 | 0.00 | 0.00 | 82 | 1014.5 |
| 20260510010023 | 22 | 288 | 1.6 | 1.6 | 0.00 | 0.00 | 0.00 | 81 | 1014.5 |
| 20260510004528 | 22 | 267 | 1.6 | 4.8 | 0.00 | 0.00 | 0.00 | 81 | 1014.1 |
| 20260510003024 | 22 | 245 | 3.2 | 8.0 | 0.00 | 0.00 | 0.00 | 81 | 1013.9 |
| 20260510001524 | 22 | 271 | 1.6 | 6.4 | 0.00 | 0.00 | 0.00 | 80 | 1013.9 |
| 20260510000023 | 23 | 242 | 3.2 | 9.7 | 0.00 | 0.00 | 0.00 | 79 | 1014.0 |
| 20260509234506 | 23 | 256 | 4.8 | 9.7 | 0.00 | 0.00 | 0.00 | 78 | 1013.9 |
| 20260509233011 | 23 | 105 | 3.2 | 14.5 | 0.00 | 0.00 | 0.00 | 77 | 1013.7 |
| 20260509231517 | 23 | 259 | 1.6 | 8.0 | 0.00 | 0.00 | 0.00 | 77 | 1013.8 |
| 20260509230021 | 24 | 290 | 3.2 | 11.3 | 0.00 | 0.00 | 0.00 | 75 | 1013.7 |
| 20260509224523 | 25 | 262 | 9.7 | 17.7 | 0.00 | 0.00 | 0.00 | 74 | 1013.8 |
| 20260509223007 | 26 | 276 | 4.8 | 17.7 | 0.00 | 0.00 | 0.00 | 72 | 1013.8 |
| 20260509221511 | 27 | 265 | 3.2 | 9.7 | 0.00 | 0.00 | 0.00 | 69 | 1013.7 |
| 20260509220025 | 27 | 295 | 3.2 | 12.9 | 0.00 | 0.00 | 0.00 | 67 | 1013.6 |
| 20260509214522 | 28 | 288 | 3.2 | 8.0 | 0.00 | 0.00 | 0.00 | 63 | 1013.4 |
| 20260509213008 | 29 | 323 | 3.2 | 9.7 | 0.00 | 0.00 | 0.00 | 59 | 1013.3 |
| 20260509211511 | 29 | 289 | 3.2 | 14.5 | 0.00 | 0.00 | 0.00 | 58 | 1012.9 |
| 20260509210015 | 31 | 273 | 1.6 | 9.7 | 0.00 | 0.00 | 0.00 | 55 | 1012.6 |
| 20260509204523 | 30 | 337 | 4.8 | 12.9 | 0.00 | 0.00 | 0.00 | 58 | 1012.7 |
| 20260509203036 | 31 | 316 | 3.2 | 11.3 | 0.00 | 0.00 | 0.00 | 59 | 1012.8 |
| 20260509201508 | 30 | 168 | 3.2 | 9.7 | 0.00 | 0.00 | 0.00 | 60 | 1012.9 |
| 20260509200015 | 30 | 299 | 4.8 | 12.9 | 0.00 | 0.00 | 0.00 | 62 | 1012.9 |
| 20260509194519 | 28 | 283 | 1.6 | 9.7 | 0.00 | 0.00 | 0.00 | 65 | 1013.0 |
| 20260509193023 | 28 | 304 | 3.2 | 12.9 | 0.00 | 0.00 | 0.00 | 66 | 1013.0 |
| 20260509191524 | 28 | 298 | 3.2 | 9.7 | 0.00 | 0.00 | 0.00 | 67 | 1013.1 |
| 20260509190018 | 28 | 340 | 4.8 | 16.1 | 0.00 | 0.00 | 0.00 | 67 | 1013.4 |
| 20260509184517 | 28 | 312 | 4.8 | 11.3 | 0.00 | 0.00 | 0.00 | 68 | 1013.5 |
| 20260509183024 | 28 | 317 | 6.4 | 12.9 | 0.00 | 0.00 | 0.00 | 65 | 1013.5 |
| 20260509181527 | 29 | 343 | 4.8 | 17.7 | 0.00 | 0.00 | 0.00 | 61 | 1013.7 |
| 20260509180028 | 30 | 285 | 1.6 | 12.9 | 0.00 | 0.00 | 0.00 | 61 | 1014.0 |
| 20260509174514 | 30 | 305 | 6.4 | 16.1 | 0.00 | 0.00 | 0.00 | 59 | 1014.2 |
| 20260509173022 | 30 | 350 | 11.3 | 20.9 | 0.00 | 0.00 | 0.00 | 57 | 1014.1 |
| 20260509171525 | 30 | 354 | 6.4 | 16.1 | 0.00 | 0.00 | 0.00 | 60 | 1014.1 |